Starlink 4420

operational
NORAD ID: 53654 Int'l Des: 2022-105 Owner: SPXS Country: US Constellation: starlink
LEOCIRCULARRETROGRADESSO

Starlink 4420について

説明を読み込み中...

リアルタイム位置

3D地球を読み込み中...

次回通過

高度履歴

Altitude vs Time

uPlot chart will show altitude changes over time

軌道要素

1 53654U 22105G 25306.40447426 -.00007312 00000-0 -50261-3 0 9992
2 53654 97.6033 185.7257 0002375 85.9396 274.2102 15.05683399174149
Epoch: Nov 2, 2025 • Age: 11 hours

現在のステータス

高度 551.2 km
速度 7.59 km/s
衛星直下点 13.59°N, 172.02°W
打ち上げ日 Aug 31, 2022
運用期間 3.1 years
タイプ internet

技術仕様

分類 Payload
質量 300.00 kg
乾燥質量 290.00 kg
総質量 300.00 kg
長さ 0.20 m
直径 2.80 m
スパン 9.00 m
形状 Box + pan
製造者 SPXS
バスタイプ Starlink
フェーズステータス In Orbit
所有者/国 SPXS/US

大規模コンステレーション

Loading constellations...